LNE2909 SEGU-SEQM

Flight info

Callsign LNE2909
Flight time 0h 33m
Altitude 23000
Route REGAP2 PAMIS DCT
Aircraft A319/M-V/N

Departure

Time 2026-04-24 23:58
Airport José Joaquín de Olmedo International Airport (SEGU)

Arrival

Time 2026-04-25 00:32
Airport Mariscal Sucre International Airport (SEQM)
Time Latitude Longitude Altitude Speed Heading
2026-04-24 23:32 -2.14951 -79.88385 29 ft 0 kts 300°
2026-04-24 23:38 -2.14952 -79.88385 29 ft 0 kts 300°
2026-04-24 23:47 -2.14951 -79.88385 29 ft 0 kts 300°
2026-04-24 23:47 -2.14952 -79.88383 29 ft 0 kts 300°
2026-04-24 23:48 -2.14961 -79.88369 29 ft 3 kts 300°
2026-04-24 23:48 -2.14970 -79.88353 29 ft 3 kts 300°
2026-04-24 23:48 -2.14979 -79.88337 29 ft 2 kts 299°
2026-04-24 23:48 -2.14987 -79.88324 29 ft 2 kts 331°
2026-04-24 23:49 -2.15003 -79.88322 29 ft 0 kts 30°
2026-04-24 23:53 -2.15002 -79.88322 29 ft 1 kts 30°
2026-04-24 23:53 -2.14984 -79.88312 29 ft 5 kts 30°
2026-04-24 23:53 -2.14938 -79.88285 29 ft 10 kts 30°
2026-04-24 23:53 -2.14862 -79.88242 29 ft 15 kts 30°
2026-04-24 23:54 -2.14792 -79.88197 29 ft 9 kts 46°
2026-04-24 23:54 -2.14806 -79.88124 29 ft 13 kts 119°
2026-04-24 23:54 -2.14841 -79.88048 29 ft 9 kts 89°
2026-04-24 23:54 -2.14811 -79.88019 29 ft 1 kts 31°
2026-04-24 23:55 -2.14790 -79.88006 29 ft 6 kts 31°
2026-04-24 23:55 -2.14740 -79.87977 29 ft 11 kts 29°
2026-04-24 23:55 -2.14669 -79.87921 29 ft 15 kts 59°
2026-04-24 23:55 -2.14654 -79.87890 29 ft 0 kts 70°
2026-04-24 23:56 -2.14650 -79.87881 29 ft 4 kts 70°
2026-04-24 23:57 -2.14638 -79.87840 29 ft 9 kts 76°
2026-04-24 23:57 -2.14645 -79.87767 28 ft 13 kts 130°
2026-04-24 23:57 -2.14707 -79.87770 27 ft 0 kts 211°
2026-04-24 23:57 -2.14710 -79.87772 27 ft 8 kts 211°
2026-04-24 23:58 -2.14971 -79.87921 29 ft 77 kts 211°
2026-04-24 23:58 -2.15607 -79.88287 26 ft 133 kts 210°
2026-04-24 23:58 -2.16527 -79.88803 239 ft 157 kts 208°
2026-04-24 23:58 -2.17478 -79.89331 779 ft 156 kts 209°
2026-04-24 23:59 -2.18416 -79.89857 1272 ft 154 kts 210°
2026-04-24 23:59 -2.19360 -79.90350 1763 ft 154 kts 201°
2026-04-24 23:59 -2.20436 -79.90317 2246 ft 160 kts 162°
2026-04-24 23:59 -2.21334 -79.89647 2751 ft 166 kts 126°
2026-04-25 00:00 -2.21713 -79.88569 3220 ft 170 kts 92°
2026-04-25 00:00 -2.21375 -79.87387 3440 ft 191 kts 54°
2026-04-25 00:00 -2.20365 -79.86398 3624 ft 217 kts 41°
2026-04-25 00:00 -2.19171 -79.85345 3947 ft 241 kts 42°
2026-04-25 00:01 -2.17850 -79.84182 4415 ft 263 kts 42°
2026-04-25 00:01 -2.16461 -79.82952 5217 ft 269 kts 42°
2026-04-25 00:01 -2.15053 -79.81703 6106 ft 273 kts 42°
2026-04-25 00:01 -2.13627 -79.80434 6910 ft 276 kts 42°
2026-04-25 00:02 -2.12178 -79.79138 7646 ft 283 kts 41°
2026-04-25 00:02 -2.10696 -79.77812 8407 ft 288 kts 41°
2026-04-25 00:02 -2.09194 -79.76467 9204 ft 292 kts 42°
2026-04-25 00:02 -2.07674 -79.75106 9973 ft 295 kts 42°
2026-04-25 00:03 -2.06095 -79.73694 10254 ft 316 kts 42°
2026-04-25 00:03 -2.04367 -79.72254 10651 ft 329 kts 34°
2026-04-25 00:03 -2.02384 -79.71076 11225 ft 334 kts 29°
2026-04-25 00:03 -2.00349 -79.69924 11853 ft 338 kts 29°
2026-04-25 00:04 -1.98291 -79.68756 12472 ft 342 kts 29°
2026-04-25 00:04 -1.96239 -79.67589 13078 ft 346 kts 29°
2026-04-25 00:04 -1.94137 -79.66395 13716 ft 349 kts 29°
2026-04-25 00:04 -1.92013 -79.65191 14251 ft 352 kts 29°
2026-04-25 00:05 -1.89872 -79.63978 14787 ft 355 kts 29°
2026-04-25 00:05 -1.87721 -79.62755 15329 ft 358 kts 29°
2026-04-25 00:05 -1.85550 -79.61518 15844 ft 361 kts 29°
2026-04-25 00:05 -1.83360 -79.60271 16369 ft 364 kts 29°
2026-04-25 00:06 -1.81153 -79.59017 16897 ft 366 kts 29°
2026-04-25 00:06 -1.78929 -79.57757 17437 ft 369 kts 28°
2026-04-25 00:06 -1.76689 -79.56487 17999 ft 371 kts 29°
2026-04-25 00:06 -1.74435 -79.55205 18475 ft 374 kts 29°
2026-04-25 00:07 -1.72166 -79.53914 18927 ft 376 kts 29°
2026-04-25 00:07 -1.69885 -79.52621 19389 ft 378 kts 29°
2026-04-25 00:07 -1.67593 -79.51323 19857 ft 380 kts 29°
2026-04-25 00:07 -1.65290 -79.50018 20319 ft 381 kts 29°
2026-04-25 00:08 -1.62981 -79.48706 20802 ft 383 kts 29°
2026-04-25 00:08 -1.60657 -79.47387 21262 ft 385 kts 30°
2026-04-25 00:08 -1.58323 -79.46060 21712 ft 387 kts 30°
2026-04-25 00:08 -1.55985 -79.44717 22163 ft 389 kts 30°
2026-04-25 00:09 -1.53642 -79.43357 22609 ft 390 kts 30°
2026-04-25 00:09 -1.51289 -79.41985 23002 ft 393 kts 31°
2026-04-25 00:09 -1.48948 -79.40616 23079 ft 384 kts 31°
2026-04-25 00:09 -1.46681 -79.39290 23084 ft 371 kts 30°
2026-04-25 00:10 -1.44482 -79.38006 23083 ft 362 kts 30°
2026-04-25 00:10 -1.42315 -79.36746 23084 ft 359 kts 30°
2026-04-25 00:10 -1.40161 -79.35497 23084 ft 358 kts 30°
2026-04-25 00:10 -1.38006 -79.34248 23084 ft 358 kts 30°
2026-04-25 00:11 -1.35851 -79.33000 23084 ft 358 kts 30°
2026-04-25 00:11 -1.34422 -79.32172 23089 ft 358 kts 30°
2026-04-25 00:11 -1.31540 -79.30501 23090 ft 358 kts 30°
2026-04-25 00:11 -1.29357 -79.29229 23091 ft 367 kts 30°
2026-04-25 00:12 -1.27893 -79.28376 23090 ft 370 kts 30°
2026-04-25 00:12 -1.24938 -79.26656 23189 ft 371 kts 30°
2026-04-25 00:12 -1.22705 -79.25359 23187 ft 371 kts 30°
2026-04-25 00:12 -1.20474 -79.24065 23187 ft 372 kts 30°
2026-04-25 00:13 -1.18238 -79.22768 23193 ft 372 kts 30°
2026-04-25 00:13 -1.16001 -79.21472 23193 ft 372 kts 30°
2026-04-25 00:13 -1.13764 -79.20177 23192 ft 371 kts 30°
2026-04-25 00:13 -1.11529 -79.18881 23195 ft 371 kts 30°
2026-04-25 00:14 -1.10018 -79.18005 23196 ft 371 kts 30°
2026-04-25 00:14 -1.07773 -79.16701 23200 ft 380 kts 31°
2026-04-25 00:14 -1.05478 -79.15361 23192 ft 378 kts 31°
2026-04-25 00:14 -1.03245 -79.14058 23185 ft 366 kts 31°
2026-04-25 00:15 -1.01111 -79.12814 23271 ft 354 kts 31°
2026-04-25 00:15 -0.98998 -79.11586 23270 ft 349 kts 31°
2026-04-25 00:15 -0.96899 -79.10376 23265 ft 348 kts 28°
2026-04-25 00:15 -0.94753 -79.09261 23268 ft 347 kts 27°
2026-04-25 00:16 -0.92602 -79.08158 23265 ft 347 kts 28°
2026-04-25 00:16 -0.90480 -79.07009 23264 ft 347 kts 30°
2026-04-25 00:16 -0.88387 -79.05805 23250 ft 347 kts 30°
2026-04-25 00:16 -0.86307 -79.04583 23250 ft 347 kts 32°
2026-04-25 00:17 -0.84254 -79.03320 23248 ft 346 kts 33°
2026-04-25 00:17 -0.82237 -79.02002 23248 ft 346 kts 38°
2026-04-25 00:17 -0.80488 -79.00356 23250 ft 346 kts 50°
2026-04-25 00:17 -0.79118 -78.98384 23315 ft 346 kts 61°
2026-04-25 00:18 -0.77993 -78.96258 23314 ft 346 kts 62°
2026-04-25 00:18 -0.76861 -78.94134 23313 ft 346 kts 62°
2026-04-25 00:18 -0.75721 -78.92014 23315 ft 345 kts 61°
2026-04-25 00:18 -0.74599 -78.89935 23222 ft 337 kts 61°
2026-04-25 00:19 -0.73496 -78.87895 23098 ft 330 kts 61°
2026-04-25 00:19 -0.72405 -78.85870 22441 ft 335 kts 61°
2026-04-25 00:19 -0.71286 -78.83787 21604 ft 343 kts 61°
2026-04-25 00:19 -0.70158 -78.81681 21027 ft 344 kts 61°
2026-04-25 00:20 -0.69030 -78.79578 20451 ft 343 kts 61°
2026-04-25 00:20 -0.67903 -78.77484 19909 ft 342 kts 60°
2026-04-25 00:20 -0.66781 -78.75396 19480 ft 341 kts 61°
2026-04-25 00:20 -0.65658 -78.73303 19336 ft 342 kts 61°
2026-04-25 00:21 -0.64536 -78.71218 18894 ft 339 kts 61°
2026-04-25 00:21 -0.63419 -78.69144 18336 ft 338 kts 61°
2026-04-25 00:21 -0.62310 -78.67084 17807 ft 335 kts 60°
2026-04-25 00:21 -0.61216 -78.65044 17295 ft 331 kts 60°
2026-04-25 00:22 -0.60134 -78.63023 16790 ft 328 kts 60°
2026-04-25 00:22 -0.59060 -78.61022 16264 ft 325 kts 61°
2026-04-25 00:22 -0.57995 -78.59038 15765 ft 323 kts 61°
2026-04-25 00:22 -0.56936 -78.57071 15272 ft 320 kts 61°
2026-04-25 00:23 -0.55882 -78.55117 15047 ft 319 kts 61°
2026-04-25 00:23 -0.54830 -78.53163 15016 ft 320 kts 61°
2026-04-25 00:23 -0.53787 -78.51223 15012 ft 309 kts 61°
2026-04-25 00:23 -0.52802 -78.49390 15015 ft 290 kts 61°
2026-04-25 00:24 -0.51878 -78.47668 15018 ft 275 kts 61°
2026-04-25 00:24 -0.50992 -78.46022 15024 ft 263 kts 61°
2026-04-25 00:24 -0.50143 -78.44444 15017 ft 252 kts 61°
2026-04-25 00:24 -0.49324 -78.42919 14992 ft 246 kts 60°
2026-04-25 00:25 -0.48386 -78.41501 15014 ft 245 kts 44°
2026-04-25 00:25 -0.47029 -78.40489 14905 ft 246 kts 25°
2026-04-25 00:25 -0.45428 -78.39881 14659 ft 242 kts 18°
2026-04-25 00:25 -0.43888 -78.39336 14477 ft 231 kts 18°
2026-04-25 00:26 -0.42385 -78.38800 14119 ft 229 kts 19°
2026-04-25 00:26 -0.40890 -78.38262 13690 ft 228 kts 19°
2026-04-25 00:26 -0.39405 -78.37726 13300 ft 226 kts 19°
2026-04-25 00:26 -0.37948 -78.37223 12946 ft 224 kts 18°
2026-04-25 00:27 -0.36433 -78.36722 12390 ft 228 kts 18°
2026-04-25 00:27 -0.34931 -78.36232 11902 ft 227 kts 18°
2026-04-25 00:27 -0.33432 -78.35746 11428 ft 227 kts 17°
2026-04-25 00:27 -0.31961 -78.35264 11184 ft 217 kts 17°
2026-04-25 00:28 -0.30531 -78.34810 10810 ft 219 kts 13°
2026-04-25 00:28 -0.29019 -78.34729 10571 ft 217 kts 356°
2026-04-25 00:28 -0.27542 -78.34794 10502 ft 206 kts 357°
2026-04-25 00:28 -0.26153 -78.34854 10415 ft 196 kts 357°
2026-04-25 00:29 -0.24803 -78.34912 10204 ft 194 kts 357°
2026-04-25 00:29 -0.23462 -78.34969 9941 ft 191 kts 356°
2026-04-25 00:29 -0.22150 -78.35025 9669 ft 186 kts 357°
2026-04-25 00:29 -0.20873 -78.35080 9408 ft 181 kts 357°
2026-04-25 00:30 -0.19658 -78.35132 9161 ft 167 kts 357°
2026-04-25 00:30 -0.18540 -78.35179 8916 ft 156 kts 357°
2026-04-25 00:30 -0.17478 -78.35225 8682 ft 151 kts 357°
2026-04-25 00:30 -0.16441 -78.35269 8435 ft 149 kts 357°
2026-04-25 00:31 -0.15414 -78.35315 8211 ft 148 kts 356°
2026-04-25 00:31 -0.14387 -78.35360 7999 ft 148 kts 356°
2026-04-25 00:31 -0.13404 -78.35404 7889 ft 127 kts 356°
2026-04-25 00:31 -0.12716 -78.35431 7864 ft 62 kts 357°
2026-04-25 00:32 -0.12469 -78.35526 7848 ft 29 kts 324°
2026-04-25 00:32 -0.12402 -78.35568 7843 ft 0 kts 328°
2026-04-25 00:33 -0.12395 -78.35572 7843 ft 6 kts 328°
2026-04-25 00:34 -0.12357 -78.35641 7844 ft 18 kts 271°
2026-04-25 00:34 -0.12363 -78.35783 7838 ft 17 kts 267°
2026-04-25 00:34 -0.12306 -78.35845 7842 ft 19 kts
2026-04-25 00:34 -0.12252 -78.35864 7838 ft 8 kts 282°
2026-04-25 00:35 -0.12252 -78.35921 7843 ft 0 kts 267°
2026-04-25 00:35 -0.12252 -78.35932 7843 ft 0 kts 267°